Location: Navajo
(48.7922°N, 105.0603°W)
Time: 19:34:45
(UTC+00:00)

DUCHIFAT 1 - Pass Details

Date: 26 June 2022
Orbit: 580 x 596 km, 98.0° (Epoch: 08 August)

Event Time Altitude Azimuth Distance (km) Brightness Sun altitude
Rises 09:47:30 0° 13° (NNE) 2,838 ? -9.1°
Reaches altitude 10° 09:49:40 10° 12° (NNE) 1,935 ? -8.8°
Maximum altitude 09:53:52 83° 286° (WNW) 605 ? -8.4°
Drops below altitude 10° 09:58:04 10° 198° (SSW) 1,927 ? -8.0°
Enters shadow 09:58:24 - 198° (SSW) 2,064 ? -7.9°
